Home > Weather > Thousand Oaks > Past weeks

Flag for U.S.A. Weather for the Past 2 Weeks in Thousand Oaks, California, U.S.A.

Now
63 °F

Clear.


Feels Like: 63 °F
Forecast: 54 / 82 °F
Wind: 3 mph from Northeast

Location: Camarillo Airport

Current Time: Feb 10, 2016 at 11:36:47 PM

Latest Report: Feb 10, 2016 at 10:55 PM


Visibility: 10 mi

Pressure: 30.11 "Hg

Humidity: 35%

Dew point: 35 °F

Location of Thousand OaksLocation

Historic Weather in Thousand Oaks — Graph

°F

Thousand Oaks Temperature Yesterday

Maximum temperature yesterday: 91 °F (at 1:55 PM)
Minimum temperature yesterday: 53 °F (at 11:55 PM)
Average temperature yesterday: 74 °F

High & Low Weather Summary for the Past Weeks

 TemperatureHumidityPressure
High91 °F (Feb 9, 1:55 PM)93% (Jan 31, 7:55 AM)30.41 "Hg (Jan 31, 7:55 AM)
Low36 °F (Feb 2, 5:55 AM)8% (Feb 9, 1:55 PM)29.60 "Hg (Jan 31, 12:01 PM)
Average61 °F42%30.16 "Hg
* Reported Jan 26 9:55 PM — Feb 10 9:55 PM, Thousand Oaks, Weather by CustomWeather, © 2016

Note: Actual official high and low records may vary slightly from our data, if they occured in-between our weather recording intervals... More about our weather records

Advertising

Thousand Oaks Weather History for the Previous 24 Hours

 ConditionsComfort  
Time TempWeatherWind HumidityBarometerVisibility
9:55 PM
Wed, Feb 10
57 °FClear.3 mph49%30.11 "Hg10 mi
8:55 PM57 °FClear.3 mph55%30.11 "Hg10 mi
7:55 PM63 °FClear.7 mph43%30.11 "Hg10 mi
6:55 PM62 °FClear.6 mph46%30.11 "Hg10 mi
5:55 PM69 °FClear.No wind38%30.11 "Hg10 mi
4:55 PM72 °FSunny.5 mph38%30.11 "Hg10 mi
3:55 PM74 °FSunny.6 mph32%30.11 "Hg10 mi
2:55 PM76 °FSunny.9 mph32%30.11 "Hg10 mi
1:55 PM78 °FSunny.12 mph25%30.11 "Hg10 mi
12:55 PM78 °FSunny.10 mph29%30.10 "Hg10 mi
11:55 AM88 °FSunny.6 mph10%30.13 "Hg10 mi
10:55 AM87 °FSunny.12 mph11%30.16 "Hg10 mi
9:55 AM81 °FSunny.8 mph16%30.18 "Hg10 mi
8:55 AM69 °FSunny.3 mph32%30.18 "Hg10 mi
7:55 AM58 °FSunny.3 mph43%30.16 "Hg10 mi
6:55 AM50 °FSunny.No wind50%30.14 "Hg10 mi
5:55 AM55 °FClear.5 mph40%30.14 "Hg10 mi
4:55 AM55 °FClear.No wind42%30.14 "Hg10 mi
3:55 AM54 °FClear.6 mph45%30.13 "Hg10 mi
2:55 AM51 °FClear.No wind54%30.14 "Hg10 mi
1:55 AM53 °FClear.5 mph52%30.14 "Hg10 mi
12:55 AM53 °FClear.No wind56%30.15 "Hg10 mi
11:55 PM
Tue, Feb 9
53 °FClear.3 mph61%30.15 "Hg10 mi
Weather by CustomWeather, © 2016

See weather overviewHow to use our weather pages